地球静止运行环境卫星 14星 (GOES 14)

导读 | 星芒AI

GOES 14 是美国国家海洋和大气管理局(NOAA)运营的地球静止环境卫星,属于GOES系列。它于2006年发射,主要用于气象观测,提供高分辨率的可见光和红外图像,监测天气变化、风暴发展和气候趋势。GOES 14 曾作为备用卫星,在其他卫星故障时提供关键数据支持。其搭载的先进传感器可实时传输数据,提高天气预报的准确性,对灾害预警和应急响应具有重要意义。

基本信息
目录编号:
35491
目录名称:
GOES 14
国际标识:
2009-033A
轨道中心:
EARTH
卫星名称:
地球静止运行环境卫星 14星
卫星全名:
地球静止运行环境卫星 14星 (GOES 14)
卫星状态:
在轨 (已飞行5968 天)
发射日期:
2009-06-27 UTC
国别 :
美国 (US)
星等 :
--
轨道信息
数据来源 国际轨道数据 AOE轨道数据
星历时间 2025-10-28T22:14:21+0800
17小时前
查看轨道信息
2025-10-28T22:00:00+0800
17小时前
查看轨道信息
半长轴 42164.644km 42164.644km
偏心率 0.0003932 0.000392
轨道倾角 1.077° 1.077°
近地点辐角 126.547° 126.018°
升交点赤经 85.933° 85.927°
平近点角 289.861° 286.797°
近地点 35769.929km 35769.98km
远地点 35803.089km 35803.038km
周期 1436.092分钟 1436.092分钟
每日圈数 1.002721 1.002721
详细信息
卫星平台:
BSS-601
平衡模式:
三轴稳定
覆盖范围:
全球
制造商(研发单位):
波音公司
制造商所在国:
美国
使用方式:
暂无
卫星简介
地球静止环境业务卫星是美国国家海洋和大气管理局(NOAA)与美国国家航空航天局(NASA)共同发展的民用静止轨道气象系列卫星。[1]美国第一代地球静止轨道气象卫星系列。英文缩写为GOES。该卫星仍在工作。
2D轨道图
3D轨道图
轨道高度分析图
轨道倾角分析图
轨道综合分析图
查看轨道综合分析图